TimeEDT,TemperatureF,Dew PointF,Humidity,Sea Level PressureIn,VisibilityMPH,Wind Direction,Wind SpeedMPH,Gust SpeedMPH,PrecipitationIn,Events,Conditions,WindDirDegrees,DateUTC
12:54 AM,45.0,24.1,44,29.86,10.0,WSW,8.1,-,N/A,,Mostly Cloudy,240,2012-11-02 04:54:00
1:54 AM,43.0,28.9,58,29.85,10.0,WSW,4.6,-,N/A,,Overcast,240,2012-11-02 05:54:00
2:54 AM,44.1,25.0,47,29.84,10.0,SW,6.9,-,N/A,,Overcast,230,2012-11-02 06:54:00
3:54 AM,44.1,25.0,47,29.83,10.0,SW,4.6,-,N/A,,Overcast,230,2012-11-02 07:54:00
4:54 AM,41.0,32.0,70,29.82,10.0,Calm,Calm,-,N/A,,Overcast,0,2012-11-02 08:54:00
5:54 AM,43.0,28.9,58,29.83,10.0,Calm,Calm,-,N/A,,Overcast,0,2012-11-02 09:54:00
6:54 AM,43.0,30.0,60,29.83,10.0,SW,4.6,-,N/A,,Overcast,230,2012-11-02 10:54:00
7:54 AM,41.0,33.1,73,29.84,10.0,Calm,Calm,-,N/A,,Overcast,0,2012-11-02 11:54:00
8:54 AM,44.1,27.0,51,29.88,10.0,West,3.5,-,N/A,,Mostly Cloudy,280,2012-11-02 12:54:00
9:54 AM,45.0,27.0,49,29.91,10.0,NW,9.2,-,N/A,,Mostly Cloudy,320,2012-11-02 13:54:00
10:54 AM,45.0,26.1,48,29.93,10.0,NNW,11.5,16.1,N/A,,Scattered Clouds,330,2012-11-02 14:54:00
11:54 AM,48.0,26.1,42,29.94,10.0,Variable,5.8,-,N/A,,Partly Cloudy,0,2012-11-02 15:54:00
12:54 PM,50.0,27.0,41,29.94,10.0,NW,6.9,19.6,N/A,,Scattered Clouds,320,2012-11-02 16:54:00
1:54 PM,50.0,27.0,41,29.94,10.0,West,18.4,24.2,N/A,,Scattered Clouds,260,2012-11-02 17:54:00
2:54 PM,51.1,27.0,39,29.94,10.0,NW,8.1,-,N/A,,Scattered Clouds,310,2012-11-02 18:54:00
3:54 PM,51.1,27.0,39,29.94,10.0,West,8.1,20.7,N/A,,Scattered Clouds,280,2012-11-02 19:54:00
4:54 PM,52.0,27.0,38,29.96,10.0,WNW,6.9,17.3,N/A,,Scattered Clouds,290,2012-11-02 20:54:00
5:54 PM,50.0,26.1,39,29.97,10.0,NW,9.2,16.1,N/A,,Partly Cloudy,310,2012-11-02 21:54:00
6:54 PM,48.0,27.0,44,30.00,10.0,NNW,9.2,-,N/A,,Clear,330,2012-11-02 22:54:00
7:54 PM,46.0,27.0,47,30.01,10.0,NNW,8.1,-,N/A,,Clear,330,2012-11-02 23:54:00
8:54 PM,44.1,27.0,51,30.04,10.0,NNW,6.9,-,N/A,,Clear,340,2012-11-03 00:54:00
9:54 PM,42.1,27.0,55,30.05,10.0,Calm,Calm,-,N/A,,Clear,0,2012-11-03 01:54:00
10:54 PM,39.0,28.0,65,30.06,10.0,Calm,Calm,-,N/A,,Clear,0,2012-11-03 02:54:00
11:54 PM,37.0,28.0,70,30.07,10.0,Calm,Calm,-,N/A,,Clear,0,2012-11-03 03:54:00